Location: Molveno
(46.1500°N, 10.9667°E)
Time: 00:30:33
(UTC+00:00)

Lacrosse 5 rocket - Pass Details

Date: 05 July 2020
Orbit: 465 x 632 km, 57.0° (Epoch: 11 August)

Event Time Altitude Azimuth Distance (km) Brightness Sun altitude
Rises 22:55:08 0° 310° (NW) 2,724 5.6 -20.9°
Reaches altitude 10° 22:57:41 10° 322° (NW) 1,796 4.7 -21.0°
Maximum altitude 23:01:09 26° 21° (NNE) 1,034 3.3 -21.0°
Drops below altitude 10° 23:04:27 10° 80° (E) 1,708 3.9 -21.1°
Enters shadow 23:06:17 - 92° (E) 2,361 4.5 -21.1°
